Flag for U.S.A. Weather past 2 weeks in Cape Coral, Florida, U.S.A.

Now
74 °F

Clear.


Feels Like: 73 °F
Forecast: 71 / 80 °F
Wind: 3 mph from East

Location: Page Field

Current Time: Oct 21, 2014 at 5:06:03 AM

Latest Report: Oct 21, 2014 at 3:53 AM


Visibility: 10 mi

Pressure: 29.91 "Hg

Humidity: 88%

Dew point: 70 °F

Location of Cape CoralLocation

Historic Weather in Cape Coral — Graph

°F

Cape Coral temperature yesterday

Maximum temperature yesterday: 87 °F (at 2:53 PM)
Minimum temperature yesterday: 67 °F (at 4:53 AM)
Average temperature yesterday: 77 °F

Past Weeks' High & Low Weather Summary

 TemperatureHumidityPressure
High91 °F (Oct 11, 3:53 PM)97% (Oct 8, 3:53 AM)30.12 "Hg (Oct 8, 3:53 AM)
Low62 °F (Oct 17, 7:53 AM)34% (Oct 9, 2:53 PM)29.90 "Hg (Oct 16, 5:53 PM)
Average77 °F75%30.00 "Hg
* Reported Oct 6 3:53 AM — Oct 21 3:53 AM, Cape Coral, Weather by CustomWeather, © 2014

Note: Actual official high and low records may vary slightly from our data, if they occured in-between our weather recording intervals... More about our weather records

Advertising

Cape Coral weather history for previous 24 hours

 ConditionsComfort  
Time TempWeatherWind HumidityBarometerVisibility
3:53 AM
Oct 21
74 °FClear.3 mph88%29.91 "Hg10 mi
2:53 AM75 °FClear.No wind85%29.92 "Hg10 mi
1:53 AM75 °FClear.3 mph85%29.94 "Hg10 mi
12:53 AM75 °FClear.3 mph85%29.95 "Hg10 mi
11:53 PM
Oct 20
77 °FClear.5 mph79%29.98 "Hg10 mi
10:53 PM78 °FClear.6 mph74%29.98 "Hg10 mi
9:53 PM79 °FClear.3 mph69%29.96 "Hg10 mi
8:53 PM80 °FPassing clouds.5 mph62%29.96 "Hg10 mi
7:53 PM80 °FPartly sunny.No wind64%29.93 "Hg10 mi
6:53 PM83 °FBroken clouds.5 mph57%29.93 "Hg10 mi
5:53 PM86 °FPartly sunny.No wind46%29.91 "Hg10 mi
4:53 PM86 °FOvercast.3 mph48%29.93 "Hg10 mi
3:53 PM86 °FPartly sunny.5 mph48%29.93 "Hg10 mi
2:53 PM87 °FScattered clouds.5 mph45%29.94 "Hg10 mi
1:53 PM86 °FSunny.6 mph46%29.96 "Hg10 mi
12:53 PM84 °FSunny.No wind49%29.99 "Hg10 mi
11:53 AM84 °FSunny.6 mph53%30.02 "Hg10 mi
10:53 AM81 °FSunny.6 mph62%30.03 "Hg10 mi
9:53 AM77 °FSunny.7 mph71%30.04 "Hg10 mi
8:53 AM72 °FSunny.6 mph81%30.02 "Hg10 mi
7:53 AM68 °FClear.5 mph90%30.01 "Hg10 mi
6:53 AM68 °FPassing clouds.5 mph90%30.01 "Hg10 mi
5:53 AM67 °FPassing clouds.No wind93%30.00 "Hg10 mi
Weather by CustomWeather, © 2014

See weather overviewHow to use our weather pages